Date String (YYYY-MM-DD hh:mm:ss) UTC,Instrument flags,Ambient pressure (hPa),Sample flow (lpm),Bypass flow (lpm),Sample temperature (°C),Ambient temperature (°C),ASC tube jacket temperature (°C),LED temperature (°C),Box temperature (°C),Sample RH (%),Span deviation,Mass concentration (μg/m³),Mass concentration (μg/m³),Mass concentration (μg/m³)
DateTimeUTC,F1_M11,P_M11,Q1_M11,Q2_M11,T1_M11,T2_M11,T3_M11,T4_M11,T5_M11,U1_M11,ZSPAN_M11,X2_M11,X0_M11,X1_M11
2023-01-28 22:00:00,,0818.2,4.99,0.00,22.2,20.6,00.0,31.2,23.9,14.9,0000.0,0006.64,0008.40,0006.47
2023-01-28 22:01:00,,0818.2,5.01,0.00,22.2,20.6,00.0,31.2,23.9,14.9,0000.0,0006.67,0008.46,0006.50
2023-01-28 22:02:00,,0818.3,4.99,0.00,22.2,20.5,00.0,31.2,23.9,14.9,0000.0,0006.69,0008.46,0006.53
2023-01-28 22:03:00,,0818.4,5.00,0.00,22.2,20.8,00.0,31.2,23.9,14.8,0000.0,0006.73,0008.56,0006.56
2023-01-28 22:04:00,,0818.4,5.00,0.00,22.3,21.8,00.0,31.1,24.2,14.7,0000.0,0006.77,0008.65,0006.58
2023-01-28 22:05:00,,0818.4,5.01,0.00,22.4,22.8,00.0,31.1,24.4,14.6,0000.0,0006.80,0008.71,0006.60
2023-01-28 22:06:00,,0818.5,5.01,0.00,22.5,22.8,00.0,31.2,24.5,14.5,0000.0,0006.84,0008.88,0006.61
2023-01-28 22:07:00,,0818.5,5.01,0.00,22.5,22.3,00.0,31.2,24.4,14.4,0000.0,0006.86,0009.16,0006.62
2023-01-28 22:08:00,,0818.5,4.99,0.00,22.5,21.9,00.0,31.3,24.3,14.4,0000.0,0006.88,0009.15,0006.64
2023-01-28 22:09:00,,0818.5,4.99,0.00,22.5,21.7,00.0,31.3,24.3,14.5,0000.0,0006.91,0009.21,0006.65
2023-01-28 22:10:00,,0818.5,4.99,0.00,22.5,21.4,00.0,31.3,24.2,14.5,0000.0,0006.92,0009.23,0006.65
2023-01-28 22:11:00,,0818.6,4.99,0.00,22.4,21.3,00.0,31.3,24.2,14.5,0000.0,0006.94,0009.33,0006.64
2023-01-28 22:12:00,,0818.6,5.03,0.00,22.4,21.1,00.0,31.3,24.1,14.5,0000.0,0006.93,0009.31,0006.63
2023-01-28 22:13:00,,0818.6,5.01,0.00,22.4,21.0,00.0,31.3,24.1,14.6,0000.0,0006.91,0009.27,0006.62
2023-01-28 22:14:00,,0818.6,4.99,0.00,22.4,20.9,00.0,31.3,24.1,14.6,0000.0,0006.89,0009.21,0006.60
2023-01-28 22:15:00,,0818.6,5.00,0.00,22.3,20.8,00.0,31.3,24.0,14.6,0000.0,0006.88,0009.18,0006.59
2023-01-28 22:16:00,,0818.6,5.01,0.00,22.3,20.7,00.0,31.3,24.0,14.6,0000.0,0006.87,0009.17,0006.58
2023-01-28 22:17:00,,0818.7,5.02,0.00,22.3,20.6,00.0,31.3,24.0,14.6,0000.0,0006.83,0009.07,0006.56
2023-01-28 22:18:00,,0818.7,4.99,0.00,22.2,20.6,00.0,31.3,23.9,14.6,0000.0,0006.81,0008.79,0006.54
2023-01-28 22:19:00,,0818.7,5.01,0.00,22.2,20.5,00.0,31.2,23.9,14.6,0000.0,0006.82,0008.82,0006.54
2023-01-28 22:20:00,,0818.7,4.99,0.00,22.2,20.5,00.0,31.2,23.8,14.6,0000.0,0006.80,0008.81,0006.53
2023-01-28 22:21:00,,0818.7,5.00,0.00,22.2,20.6,00.0,31.2,23.9,14.7,0000.0,0006.79,0009.11,0006.51
2023-01-28 22:22:00,,0818.6,5.01,0.00,22.3,21.5,00.0,31.2,24.1,14.6,0000.0,0006.77,0009.31,0006.50
2023-01-28 22:23:00,,0818.5,5.00,0.00,22.4,22.6,00.0,31.1,24.4,14.5,0000.0,0006.74,0009.32,0006.47
2023-01-28 22:24:00,,0818.4,4.98,0.00,22.5,22.7,00.0,31.2,24.5,14.5,0000.0,0006.73,0009.44,0006.43
2023-01-28 22:25:00,,0818.3,5.01,0.00,22.5,22.2,00.0,31.2,24.4,14.4,0000.0,0006.68,0009.41,0006.38
2023-01-28 22:26:00,,0818.4,4.99,0.00,22.4,21.6,00.0,31.3,24.3,14.5,0000.0,0006.61,0009.30,0006.34
2023-01-28 22:27:00,,0818.4,5.01,0.00,22.4,21.2,00.0,31.3,24.1,14.5,0000.0,0006.56,0009.25,0006.30
2023-01-28 22:28:00,,0818.3,5.03,0.00,22.3,20.7,00.0,31.3,23.9,14.6,0000.0,0006.55,0009.25,0006.27
2023-01-28 22:29:00,,0818.2,4.99,0.00,22.3,20.4,00.0,31.3,23.8,14.6,0000.0,0006.53,0009.20,0006.27
2023-01-28 22:30:00,,0818.3,4.98,0.00,22.2,20.0,00.0,31.3,23.7,14.6,0000.0,0006.48,0009.15,0006.24
2023-01-28 22:31:00,,0818.4,5.01,0.00,22.1,19.8,00.0,31.2,23.6,14.7,0000.0,0006.45,0009.18,0006.21
2023-01-28 22:32:00,,0818.4,4.99,0.00,22.1,19.7,00.0,31.2,23.5,14.7,0000.0,0006.44,0008.95,0006.19
2023-01-28 22:33:00,,0818.4,5.01,0.00,22.0,19.7,00.0,31.1,23.5,14.8,0000.0,0006.41,0008.67,0006.18
2023-01-28 22:34:00,,0818.4,4.98,0.00,22.1,20.8,00.0,31.1,23.8,14.8,0000.0,0006.40,0008.62,0006.17
2023-01-28 22:35:00,,0818.5,5.00,0.00,22.2,22.0,00.0,31.1,24.1,14.7,0000.0,0006.35,0008.45,0006.15
2023-01-28 22:36:00,,0818.6,4.99,0.00,22.3,22.5,00.0,31.1,24.2,14.7,0000.0,0006.32,0008.38,0006.12
2023-01-28 22:37:00,,0818.7,5.00,0.00,22.3,22.0,00.0,31.1,24.1,14.6,0000.0,0006.29,0008.38,0006.09
2023-01-28 22:38:00,,0818.7,5.01,0.00,22.2,21.4,00.0,31.2,24.0,14.6,0000.0,0006.26,0008.36,0006.05
2023-01-28 22:39:00,,0818.7,5.00,0.00,22.2,21.0,00.0,31.2,23.9,14.6,0000.0,0006.18,0008.22,0006.00
2023-01-28 22:40:00,,0818.7,5.01,0.00,22.2,20.6,00.0,31.2,23.7,14.6,0000.0,0006.11,0008.12,0005.93
2023-01-28 22:41:00,,0818.7,5.00,0.00,22.1,20.3,00.0,31.1,23.7,14.7,0000.0,0006.05,0008.05,0005.88
2023-01-28 22:42:00,,0818.8,5.00,0.00,22.1,20.1,00.0,31.1,23.6,14.7,0000.0,0006.02,0008.03,0005.83
2023-01-28 22:43:00,,0818.7,5.00,0.00,22.0,20.0,00.0,31.1,23.5,14.7,0000.0,0005.95,0008.00,0005.78
2023-01-28 22:44:00,,0818.7,5.01,0.00,22.0,19.9,00.0,31.1,23.5,14.8,0000.0,0005.90,0007.91,0005.73
2023-01-28 22:45:00,,0818.7,5.01,0.00,21.9,19.9,00.0,31.0,23.5,14.9,0000.0,0005.85,0007.86,0005.68
2023-01-28 22:46:00,,0818.8,4.98,0.00,21.9,19.9,00.0,31.0,23.4,14.9,0000.0,0005.80,0007.80,0005.64
2023-01-28 22:47:00,,0818.7,4.99,0.00,21.8,19.9,00.0,31.0,23.4,15.0,0000.0,0005.79,0007.81,0005.62
2023-01-28 22:48:00,,0818.7,5.01,0.00,21.9,20.4,00.0,30.9,23.5,15.0,0000.0,0005.79,0008.10,0005.61
2023-01-28 22:49:00,,0818.8,4.99,0.00,22.0,21.6,00.0,30.9,23.8,15.0,0000.0,0005.78,0008.19,0005.61
2023-01-28 22:50:00,,0818.8,5.00,0.00,22.1,22.5,00.0,30.9,24.1,14.9,0000.0,0005.79,0008.21,0005.63
2023-01-28 22:51:00,,0818.7,4.98,0.00,22.1,22.2,00.0,30.9,24.1,14.8,0000.0,0005.82,0008.27,0005.63
2023-01-28 22:52:00,,0818.8,5.01,0.00,22.1,21.6,00.0,31.0,23.9,14.8,0000.0,0005.84,0008.33,0005.63
2023-01-28 22:53:00,,0818.8,4.99,0.00,22.1,21.1,00.0,31.0,23.8,14.9,0000.0,0005.85,0008.39,0005.65
2023-01-28 22:54:00,,0818.8,4.99,0.00,22.0,20.8,00.0,31.0,23.7,14.9,0000.0,0005.88,0008.30,0005.67
2023-01-28 22:55:00,,0818.7,5.02,0.00,22.0,20.5,00.0,31.0,23.6,14.9,0000.0,0005.90,0008.32,0005.69
2023-01-28 22:56:00,,0818.7,5.01,0.00,22.0,20.2,00.0,31.0,23.5,14.9,0000.0,0005.90,0008.30,0005.70
2023-01-28 22:57:00,,0818.7,5.00,0.00,21.9,20.0,00.0,31.0,23.4,14.9,0000.0,0005.92,0008.34,0005.73
2023-01-28 22:58:00,,0818.8,5.02,0.00,21.9,19.9,00.0,30.9,23.4,14.9,0000.0,0005.95,0008.41,0005.75
2023-01-28 22:59:00,,0818.9,5.00,0.00,21.8,19.8,00.0,30.9,23.4,14.9,0000.0,0005.95,0008.75,0005.76
